Weather in Zavallia

Ukraine / Kirovohrad Region     48°12′32″N   30°00′44″E
temp.,
°C
wind,
m/s
gust,
m/s
humid.,
%
clouds,
%
prec.,
mm/h
press.,
hPa
HPBL,
m
17 may, mon
mon1700:00+15wsw1169100 0.0 100711
03:00+15nne2272100 0.1 100542
06:00+15nw347799 0.0 100389
09:00+17n4680100 0.0 1004542
12:00+20nw3469100 1.4 10031018
15:00+21wnw446126 2.1 10031171
18:00+19wnw346235 0.1 1003826
21:00+14nnw118176 0.3 100311
18 may, tue
tue1800:00+14se22865 0.0 100321
03:00+12sse229291 0.3 100329
06:00+12s239334 0.0 100265
09:00+17s3577100 0.8 1002271
12:00+20s6662100 3.9 10011368
15:00+14ssw3789100 6.6 1001343
18:00+14sw4790100 0.6 1000390
21:00+13sw4895100 3.1 1000328
19 may, wed
wed1900:00+12sw51096100 4.6 1001449
03:00+11sw61095100 5.1 1000545
06:00+13wnw3698100 3.4 999368
09:00+13nw81391100 6.6 1002827
12:00+12wnw91592100 3.4 10051087
15:00+14nw81384100 4.3 1007985
18:00+16nw6107726 0.3 10081203
21:00+11nw229028 0.4 101015
20 may, thu
thu2000:00+10w33945 0.0 101044
03:00+9w33940 0.0 101047
06:00+9w1293100 0.0 101019
09:00+13se1181100 0.0 1010282
12:00+12ene1294100 3.4 1011141
15:00+13e4794100 5.3 1010403
18:00+13s51191100 1.4 1010559
21:00+11sse3995100 3.8 1010366
21 may, fri
fri2100:00+12e2296100 1.1 101039
03:00+11ese379692 1.1 1010206
06:00+11e2496100 0.0 1010112
09:00+14e3386100 0.0 1011488
12:00+18se1270100 0.3 10111001
15:00+19wsw226598 1.1 10111018
18:00+18w3473100 0.3 1011558
21:00+14w348599 0.3 101343